Location: Waldport
(44.4270°N, 124.0680°W)
Time: 06:31:20
(UTC-07:00)

Cosmos 1315 Rocket - Pass Details

Date: 23 June 2018
Orbit: 530 x 569 km, 81.2° (Epoch: 20 July)

Event Time Altitude Azimuth Distance (km) Brightness Sun altitude
Rises 21:50:21 0° 196° (SSW) 2,720 6.1 -7.2°
Reaches altitude 10° 21:52:30 10° 199° (SSW) 1,837 5.3 -7.4°
Maximum altitude 21:56:32 65° 282° (WNW) 620 3.3 -8.0°
Drops below altitude 10° 22:00:39 10° 5° (N) 1,871 6.1 -8.5°
Sets 22:02:52 0° 8° (N) 2,777 7.0 -8.8°
